Location: Zagreb
(45.8000°N, 16.0000°E)
Time: 19:54:03
(UTC+02:00)

SR - Pass Details

Date: 21 August 2020
Orbit: 583 x 873 km, 66.7° (Epoch: 28 September)

Event Time Altitude Azimuth Distance (km) Brightness Sun altitude
Rises 03:48:08 0° 332° (NNW) 2,832 ? -20.8°
Reaches altitude 10° 03:50:28 10° 341° (NNW) 1,946 ? -20.6°
Maximum altitude 03:54:32 38° 50° (NE) 950 ? -20.0°
Drops below altitude 10° 03:58:50 10° 119° (ESE) 2,050 ? -19.5°
Sets 04:01:21 0° 127° (SE) 3,005 ? -19.2°
